This is the latest recevied weather packets stored in our database for station/object JQ3CCU-10. If no packets are shown the sender has not sent any weather packets the latest 10 day(s).
| Time | Temp. | Humidity | Pressure | Rain* | Wind** | Luminosity | Snow |
|---|---|---|---|---|---|---|---|
| 1778104455 | 20.56° C | 64% | - | - | 0 m/s | - | - |
| 1778102655 | 20° C | 65% | - | - | 0 m/s | - | - |
| 1778100855 | 20° C | 73% | - | - | 0 m/s | - | - |
| 1778099055 | 20° C | 65% | - | - | 0 m/s | - | - |
| 1778097255 | 20° C | 65% | - | - | 0 m/s | - | - |
| 1778095455 | 20° C | 66% | - | - | 0 m/s | - | - |
| 1778093655 | 20° C | 66% | - | - | 0 m/s | - | - |
| 1778091855 | 20° C | 66% | - | - | 0 m/s | - | - |
| 1778090055 | 20° C | 66% | - | - | 0 m/s | - | - |
| 1778088255 | 20° C | 73% | - | - | 0 m/s | - | - |
| 1778086455 | 20° C | 73% | - | - | 0 m/s | - | - |
| 1778084655 | 20° C | 72% | - | - | 0 m/s | - | - |
| 1778082855 | 20° C | 72% | - | - | 0 m/s | - | - |
| 1778081055 | 20.56° C | 64% | - | - | 0 m/s | - | - |
| 1778079255 | 20.56° C | 64% | - | - | 0 m/s | - | - |
| 1778077455 | 20.56° C | 63% | - | - | 0 m/s | - | - |
| 1778075655 | 20.56° C | 63% | - | - | 0 m/s | - | - |
| 1778073855 | 21.11° C | 63% | - | - | 0 m/s | - | - |
| 1778072055 | 21.11° C | 63% | - | - | 0 m/s | - | - |
| 1778070255 | 21.67° C | 63% | - | - | 0 m/s | - | - |
| 1778068455 | 21.67° C | 63% | - | - | 0 m/s | - | - |
| 1778066655 | 21.67° C | 62% | - | - | 0 m/s | - | - |
| 1778064855 | 21.67° C | 62% | - | - | 0 m/s | - | - |
| 1778063055 | 22.78° C | 58% | - | - | 0 m/s | - | - |
| 1778061255 | 22.78° C | 58% | - | - | 0 m/s | - | - |
* Rain since midnight (hover to see other rain measurements)
** Current wind speed in m/s (hover to see current wind gust speed)